Wind_Speed
6 5 5 6 7 7 6 7 7 7 7 6 6 6 6 6 6 6 6 6 6 5 5 6 6 6 6 6 6 7 7 7 7 8 9 9 10 10 11 12 12 13 13
6 6 6 7 8 8 7 7 7 7 7 7 7 6 6 7 7 7 7 7 7 6 6 7 7 7 8 8 8 8 8 8 9 9 9 10 11 12 12 12 13 14 15
7 7 7 7 8 8 8 8 8 7 7 7 7 6 7 8 8 8 8 8 8 8 7 8 9 9 10 10 10 9 9 10 10 10 11 12 13 14 14 14 14 15 15
8 8 8 8 8 8 8 8 8 8 8 7 6 7 8 9 8 8 9 9 9 9 9 9 10 10 10 10 10 11 11 12 12 12 13 14 14 15 15 16 16 16 16
9 9 9 9 9 8 9 8 9 8 8 8 8 9 9 10 10 10 10 11 11 11 11 11 11 11 11 11 12 13 13 13 13 14 14 15 15 16 16 17 17 17 18
9 10 10 9 9 9 9 9 9 9 8 9 9 10 10 11 11 12 11 12 12 12 13 13 13 12 13 13 14 14 15 15 15 16 16 16 17 17 17 18 18 18 18
9 10 11 10 10 10 10 10 10 9 9 10 10 11 12 12 13 13 13 14 14 14 13 13 14 13 14 14 14 15 15 16 16 16 17 17 18 18 19 19 19 19 19
11 11 11 11 11 11 10 10 11 11 11 12 12 12 13 14 15 15 15 15 15 14 14 14 14 14 14 15 15 16 16 16 16 17 17 18 19 19 20 20 21 21 21
12 12 12 12 12 11 11 12 12 13 14 14 14 14 14 15 16 16 16 16 16 16 15 15 15 15 16 17 17 17 17 18 18 18 18 18 19 20 21 22 22 23 23
13 13 13 13 13 13 13 14 15 16 16 16 16 16 17 17 17 17 17 17 17 16 16 16 17 17 18 18 19 19 19 19 19 19 19 19 20 21 22 22 23 24 25
15 15 15 16 15 15 15 15 16 16 17 17 17 18 18 18 18 18 18 18 18 18 19 19 19 19 19 19 20 20 19 19 20 21 21 21 21 22 23 23 24 25 26
16 16 17 17 17 17 17 17 17 17 18 18 18 19 19 20 20 19 19 19 19 20 20 21 21 21 21 21 21 21 21 21 21 22 22 23 23 24 24 25 26 26 27
18 18 19 19 19 19 19 19 19 19 19 20 20 20 21 21 21 20 20 20 21 21 22 22 22 22 22 23 23 23 23 23 23 24 24 24 24 25 25 26 27 27 27
20 20 20 20 21 21 20 20 20 21 21 21 22 22 22 23 23 22 22 22 23 23 23 23 23 23 23 23 23 23 23 24 25 25 26 26 26 26 26 26 27 27 28
21 21 21 21 22 22 21 21 22 22 22 23 23 23 23 23 23 23 23 23 24 24 24 23 23 24 24 25 24 23 23 23 24 25 26 26 27 27 28 28 28 29 28
22 22 23 23 23 23 23 23 23 23 24 24 24 24 24 23 23 24 24 25 25 25 24 24 24 24 25 25 25 25 25 25 25 25 26 26 26 27 27 28 28 28 29
22 23 24 24 24 24 24 24 24 24 25 25 25 25 25 25 25 25 25 25 25 24 24 24 25 25 26 27 26 27 26 26 27 27 27 28 28 27 27 28 29 29 29
24 23 24 25 25 25 25 25 25 26 26 26 25 25 26 26 26 26 26 26 26 25 25 25 25 26 27 27 27 27 27 27 27 28 28 27 28 28 28 28 29 29 29
24 24 24 24 25 25 25 25 25 27 27 26 26 26 26 27 27 27 27 27 26 26 26 26 27 27 27 27 28 28 28 28 27 28 28 28 27 28 28 29 29 29 29
25 26 25 24 25 25 26 26 26 26 26 26 27 27 27 27 28 28 27 27 26 26 26 27 27 27 27 27 28 28 28 28 28 27 28 28 28 28 28 28 29 30 30
26 26 25 24 25 25 26 26 26 26 26 26 27 27 27 28 28 27 27 26 25 25 26 27 27 27 27 27 27 27 28 28 28 28 28 28 27 27 27 28 29 29 30
25 25 24 25 25 26 27 27 27 26 26 27 27 27 27 28 27 27 26 26 26 26 26 27 27 26 26 26 26 27 27 28 27 27 26 26 26 27 27 28 28 29 29
25 25 26 26 26 27 27 27 26 26 27 27 28 27 26 27 27 27 27 26 26 26 26 26 26 26 26 26 27 27 28 28 27 26 26 26 26 26 26 27 27 27 28
27 27 27 27 27 27 27 26 25 25 26 27 27 27 26 26 26 25 26 26 26 27 26 26 26 26 27 27 28 28 28 28 27 26 25 25 25 26 26 27 27 28 28
27 27 27 26 26 26 26 26 25 25 26 26 26 26 26 25 25 25 26 26 26 27 27 27 27 27 27 28 28 28 27 27 26 26 26 25 25 25 25 26 27 27 27
27 27 26 26 26 25 25 25 24 24 25 25 25 26 26 26 25 26 25 25 26 26 27 27 27 27 27 27 27 27 26 26 25 25 25 25 25 25 25 26 26 27 26
Wind_Direction
347 349 350 351 350 351 354 357 353 351 351 351 351 353 354 354 353 350 339 340 335 319 311 299 295 297 298 298 296 289 284 280 280 279 277 277 276 276 272 271 268 268 267
341 345 344 344 343 345 348 349 346 347 348 347 346 347 348 347 345 346 345 339 325 315 306 299 294 292 291 292 292 287 285 282 281 281 281 280 277 278 276 275 273 269 268
337 338 335 333 334 338 338 336 338 339 341 340 343 341 339 340 338 334 330 326 320 310 305 299 296 290 288 288 288 286 285 285 285 282 281 279 278 278 276 275 274 273 272
331 333 330 324 324 326 329 330 332 333 331 337 337 339 337 334 328 323 319 316 315 307 301 299 299 293 288 288 288 289 286 286 285 283 281 278 279 280 277 277 275 275 274
329 329 328 323 319 319 322 321 323 323 324 328 329 328 328 326 323 320 315 313 311 307 301 297 297 295 293 289 288 289 287 287 285 283 281 279 278 278 277 277 277 275 273
322 323 322 319 317 315 315 315 315 318 318 318 319 320 319 319 319 318 316 317 317 312 304 297 295 294 292 290 289 288 287 286 285 283 281 280 280 278 277 277 276 276 274
312 316 316 315 312 310 309 312 316 317 315 314 316 317 315 315 315 313 313 313 312 312 308 299 295 292 291 290 290 288 288 287 286 285 283 279 278 279 278 277 276 275 274
308 309 312 313 312 308 305 308 312 314 313 312 311 312 313 314 314 313 311 308 306 305 304 301 298 296 295 294 293 289 288 287 287 287 285 282 279 278 277 277 277 275 275
306 306 305 307 308 308 305 306 309 309 310 310 309 311 311 312 313 312 311 307 304 303 301 300 297 295 294 293 291 291 288 286 285 285 286 284 282 279 277 277 278 278 278
300 301 302 304 306 305 304 306 306 306 307 310 310 312 312 310 310 310 308 306 303 300 299 298 295 293 293 293 291 288 288 286 286 285 284 285 284 283 280 279 279 279 279
295 298 298 299 301 301 302 303 304 305 307 310 310 309 309 307 307 307 305 304 304 299 297 295 293 292 291 290 292 292 290 289 288 286 284 284 286 285 283 282 281 280 280
295 296 296 295 296 297 298 300 301 303 305 306 305 305 305 305 305 305 304 304 305 303 298 295 293 291 290 290 290 291 291 290 291 290 288 286 286 287 285 284 283 281 280
292 292 292 292 292 293 294 296 299 300 301 302 302 303 303 303 304 303 302 304 304 303 301 298 294 292 290 289 289 290 290 290 290 289 289 288 287 287 287 286 283 282 282
287 288 289 289 289 289 291 292 294 296 298 301 301 301 302 303 304 304 302 303 303 301 300 297 294 291 292 291 289 290 290 290 290 289 288 288 287 287 286 286 285 283 282
285 285 285 286 285 286 287 291 293 295 296 298 300 301 303 305 305 307 306 304 303 301 300 298 295 292 291 292 290 291 290 291 292 291 289 289 289 287 286 284 284 284 284
284 284 283 284 282 282 284 287 291 293 295 298 299 301 303 304 305 306 306 304 303 301 300 298 296 294 293 293 292 290 290 291 293 293 291 292 291 290 289 288 286 285 283
284 283 282 280 280 280 283 287 288 291 295 296 297 299 300 302 303 302 302 303 303 301 300 300 298 295 294 294 293 292 293 293 294 293 292 292 292 291 292 291 288 286 284
284 282 280 279 278 278 280 283 286 289 292 295 296 297 298 299 301 302 303 304 303 301 300 301 300 297 295 295 295 297 297 296 294 293 292 292 292 292 291 290 290 290 289
282 280 279 278 277 276 278 280 285 287 289 293 295 295 297 298 299 301 302 302 302 301 301 302 302 301 299 298 297 300 300 298 297 294 293 293 292 292 291 289 289 289 290
281 279 277 276 278 276 277 280 284 285 288 292 294 294 294 296 298 299 301 301 301 301 301 302 302 302 302 302 302 301 301 299 297 296 295 294 293 292 291 291 290 290 290
283 283 281 278 278 278 278 279 282 284 288 291 292 293 293 294 296 298 300 301 300 300 301 302 302 302 301 301 301 302 302 300 299 298 297 295 294 293 292 292 292 292 292
285 283 281 278 278 278 279 280 282 283 286 289 291 293 294 294 295 296 297 298 298 299 301 301 302 301 301 302 303 304 303 300 299 298 297 296 295 293 293 293 294 294 293
284 282 280 279 279 280 280 280 280 281 285 289 291 293 294 294 294 295 295 296 297 298 300 300 301 301 301 302 303 303 303 303 301 299 298 296 296 295 294 294 295 294 293
283 281 281 280 280 279 278 280 282 284 287 291 294 294 293 294 295 296 296 295 295 297 298 300 301 301 301 301 302 302 301 302 302 301 299 298 296 296 297 297 296 295 293
283 280 280 280 280 280 279 280 282 288 291 293 294 294 294 294 295 296 296 296 296 296 298 300 302 301 301 301 302 302 302 303 302 300 298 298 298 298 298 297 298 298 296
283 282 280 280 281 281 278 280 284 287 290 292 293 294 293 295 295 295 296 296 298 299 300 302 303 304 304 304 305 304 302 301 301 300 299 298 298 298 298 298 298 299 298
Height
5899 5898 5896 5894 5893 5892 5890 5889 5887 5886 5884 5883 5882 5880 5879 5877 5876 5875 5874 5873 5872 5871 5870 5870 5869 5869 5868 5867 5866 5866 5865 5864 5864 5863 5863 5862 5862 5862 5862 5861 5861 5861 5861
5899 5898 5896 5894 5893 5891 5890 5888 5887 5885 5884 5882 5881 5880 5879 5877 5875 5874 5873 5872 5871 5870 5869 5868 5867 5866 5866 5865 5864 5863 5862 5862 5861 5861 5860 5860 5860 5859 5858 5858 5858 5858 5858
5899 5897 5895 5894 5892 5891 5889 5887 5886 5885 5883 5882 5880 5879 5878 5876 5875 5873 5872 5870 5869 5868 5867 5866 5865 5864 5863 5862 5861 5860 5860 5859 5858 5858 5858 5857 5857 5856 5856 5855 5854 5854 5854
5898 5896 5895 5893 5891 5890 5888 5886 5885 5884 5882 5880 5879 5878 5876 5875 5874 5872 5870 5869 5867 5866 5864 5863 5862 5861 5860 5859 5858 5857 5856 5856 5855 5854 5854 5854 5853 5853 5852 5851 5851 5850 5850
5897 5895 5893 5892 5890 5889 5887 5885 5884 5882 5881 5879 5878 5876 5875 5873 5872 5870 5868 5867 5865 5863 5862 5861 5859 5858 5857 5856 5855 5854 5853 5852 5851 5851 5850 5849 5849 5848 5848 5847 5846 5846 5845
5896 5894 5892 5890 5889 5887 5885 5884 5882 5881 5879 5877 5876 5874 5873 5871 5869 5868 5866 5864 5862 5860 5859 5857 5856 5854 5853 5852 5851 5850 5850 5849 5847 5846 5846 5845 5844 5844 5843 5842 5841 5841 5840
5894 5892 5891 5889 5887 5885 5884 5882 5881 5879 5877 5875 5874 5872 5870 5869 5867 5865 5863 5861 5859 5857 5855 5853 5852 5851 5849 5848 5847 5846 5845 5844 5843 5842 5841 5840 5839 5839 5838 5837 5836 5835 5835
5892 5890 5889 5887 5885 5883 5882 5880 5878 5877 5875 5873 5871 5870 5868 5866 5864 5862 5859 5857 5855 5854 5852 5850 5849 5847 5846 5844 5843 5842 5841 5839 5838 5837 5836 5835 5834 5833 5832 5831 5831 5830 5829
5889 5888 5886 5885 5883 5881 5879 5878 5876 5874 5872 5871 5869 5867 5864 5862 5860 5858 5856 5854 5852 5850 5848 5846 5845 5843 5841 5840 5838 5837 5835 5834 5833 5832 5831 5829 5828 5827 5826 5825 5825 5824 5823
5887 5885 5883 5882 5880 5879 5877 5875 5873 5871 5869 5867 5865 5863 5861 5858 5856 5854 5852 5850 5848 5846 5844 5842 5840 5839 5837 5835 5833 5831 5830 5829 5827 5826 5825 5823 5822 5821 5820 5819 5818 5817 5816
5884 5882 5880 5879 5877 5876 5874 5872 5870 5868 5866 5864 5862 5859 5857 5854 5852 5850 5847 5845 5843 5841 5839 5837 5835 5833 5831 5830 5828 5826 5825 5823 5822 5820 5819 5817 5816 5815 5813 5812 5811 5809 5808
5880 5878 5877 5875 5873 5872 5870 5868 5866 5864 5862 5860 5858 5855 5853 5850 5847 5845 5842 5840 5838 5835 5833 5831 5829 5827 5826 5824 5822 5820 5819 5817 5816 5814 5812 5811 5809 5808 5806 5805 5803 5802 5800
5876 5874 5872 5871 5869 5868 5866 5864 5862 5860 5858 5856 5853 5851 5848 5845 5842 5840 5837 5834 5832 5829 5827 5825 5823 5821 5819 5817 5815 5814 5812 5811 5809 5807 5806 5804 5802 5801 5799 5797 5795 5794 5792
5871 5869 5868 5866 5865 5863 5861 5859 5858 5856 5853 5851 5849 5846 5843 5840 5837 5834 5831 5829 5826 5823 5820 5818 5816 5814 5812 5810 5808 5807 5805 5803 5802 5800 5798 5796 5795 5793 5791 5789 5787 5785 5784
5866 5864 5863 5861 5859 5858 5856 5855 5853 5851 5849 5846 5844 5841 5838 5834 5831 5829 5826 5823 5819 5816 5813 5811 5809 5807 5805 5803 5801 5800 5798 5796 5794 5793 5791 5789 5786 5784 5783 5781 5779 5777 5775
5860 5859 5857 5855 5854 5852 5851 5849 5847 5845 5843 5841 5838 5835 5832 5829 5826 5823 5820 5816 5813 5810 5807 5804 5802 5800 5798 5796 5794 5793 5791 5789 5787 5785 5783 5781 5779 5776 5774 5772 5770 5768 5767
5854 5853 5851 5849 5848 5846 5845 5843 5841 5839 5837 5835 5832 5829 5826 5823 5820 5817 5813 5810 5806 5803 5800 5798 5795 5793 5791 5789 5787 5786 5783 5782 5780 5777 5775 5773 5771 5768 5766 5764 5762 5759 5757
5848 5846 5844 5843 5841 5840 5839 5837 5835 5833 5831 5828 5826 5823 5820 5817 5814 5811 5807 5804 5800 5797 5794 5792 5789 5787 5784 5782 5780 5778 5775 5774 5772 5769 5767 5765 5762 5760 5758 5755 5753 5751 5749
5841 5839 5838 5836 5835 5833 5832 5830 5828 5826 5824 5822 5819 5816 5814 5811 5808 5805 5801 5797 5794 5791 5788 5785 5782 5780 5777 5775 5773 5770 5768 5766 5763 5761 5758 5756 5754 5751 5749 5747 5745 5742 5740
5833 5831 5830 5829 5828 5826 5825 5823 5821 5819 5817 5815 5812 5810 5807 5804 5801 5798 5795 5791 5788 5785 5782 5779 5776 5773 5770 5768 5765 5762 5760 5758 5755 5753 5750 5748 5745 5743 5740 5738 5736 5734 5731
5826 5824 5822 5821 5820 5819 5817 5816 5814 5812 5810 5808 5805 5802 5800 5797 5794 5791 5788 5784 5781 5778 5776 5773 5770 5767 5764 5761 5758 5755 5752 5750 5747 5744 5742 5739 5737 5734 5732 5730 5728 5725 5722
5818 5817 5815 5814 5812 5811 5810 5808 5806 5805 5802 5800 5798 5795 5792 5789 5787 5784 5781 5778 5775 5772 5769 5766 5763 5760 5757 5754 5751 5748 5745 5742 5739 5736 5734 5731 5729 5726 5724 5722 5719 5716 5714
5811 5809 5808 5806 5805 5803 5802 5800 5798 5797 5795 5792 5790 5787 5784 5781 5779 5776 5774 5771 5768 5765 5762 5759 5756 5753 5750 5747 5744 5741 5738 5734 5731 5728 5726 5723 5721 5718 5716 5713 5711 5708 5705
5803 5801 5800 5799 5797 5795 5794 5792 5791 5789 5787 5785 5782 5779 5776 5774 5772 5769 5766 5764 5761 5758 5756 5753 5749 5746 5743 5740 5737 5734 5730 5727 5724 5721 5718 5715 5713 5710 5708 5705 5702 5700 5697
5795 5794 5792 5791 5790 5788 5786 5785 5784 5782 5780 5777 5774 5772 5769 5767 5765 5762 5759 5757 5754 5751 5749 5746 5742 5739 5736 5733 5729 5725 5722 5719 5716 5713 5710 5708 5706 5703 5700 5698 5695 5692 5689
5788 5786 5785 5784 5782 5780 5779 5778 5776 5774 5772 5770 5767 5765 5762 5760 5757 5755 5753 5750 5747 5745 5741 5738 5735 5732 5729 5726 5722 5719 5715 5712 5709 5706 5703 5700 5698 5696 5693 5690 5687 5684 5681